Content
SEND FEEDBACK

Daily
Averages
Monthly
Summary
United States of America

ZAP - BEULAH FIELD, NORTH DAKOTA


Home > North America > United States > North Dakota
Elevation: 1830 feet     Latitude: 47 17N     Longitude: 101 55W

WEATHER
 
SELECT A DAY
Number of Records: 87,083;   Date Range: 11/18/10 - 9/22/14
 
SHARE

PRINT THIS DATA

[ ← Previous Day ]
WEATHER ALMANAC - FEBRUARY 13, 2013
[ Next Day → ]
[ °C ]   °F
Weather ElementAverageHighLow
Temperature32.3 °F37.4 °F (1:15 pm)28.4 °F (12:35 am)
Dewpoint28.9 °F32 °F (10:15 am)23 °F (11:55 pm)
Humidity87.4 %100 % (10:15 am)69 % (11:55 pm)
Barometer29.68 in29.77 in (11:55 pm)29.57 in (10:35 am)
Wind Speed9.2 mph21.9 mph (3:35 pm)
Wind Gust32.2 mph (11:55 pm)
Weather ElementAverage
Visibility8.6 mi
Wind DirectionWSW (260.4 °)

Weather ElementTotal
Precipitation1.05 in
Heating Degree Days32.1 (Base 65)
Averaged from 70 records on February 13, 2013
WEATHER CONDITIONS BREAKOUT
WIND DIRECTION BREAKOUT
WEATHER BY HOUR - FEBRUARY 13, 2013
[ °C ]   °F
Local TimeTemperatureDewpointHumidityBarometerVisibilityWind DirectionWind SpeedGust SpeedPrecipitationEventsConditions
12:35 AM28.4 °F24.8 °F86 %29.76 in10.0 miWSW (240°)8.1 mphMostly Cloudy
12:55 AM30.2 °F24.8 °F80 %29.76 in10.0 miWSW (240°)8.1 mphOvercast
1:15 AM28.4 °F24.8 °F86 %29.76 in10.0 miWSW (240°)6.9 mphOvercast
1:35 AM28.4 °F24.8 °F86 %29.75 in10.0 miWSW (240°)6.9 mphOvercast
1:55 AM30.2 °F24.8 °F80 %29.74 in10.0 miWSW (240°)6.9 mphOvercast
2:15 AM28.4 °F24.8 °F86 %29.74 in10.0 miWSW (240°)6.9 mphOvercast
2:35 AM28.4 °F24.8 °F86 %29.73 in10.0 miWSW (240°)6.9 mphOvercast
2:55 AM30.2 °F24.8 °F80 %29.72 in10.0 miSW (230°)8.1 mphOvercast
3:15 AM30.2 °F24.8 °F80 %29.71 in10.0 miSW (220°)10.4 mphOvercast
3:35 AM30.2 °F24.8 °F80 %29.69 in10.0 miSW (220°)9.2 mphOvercast
3:55 AM32.0 °F24.8 °F75 %29.68 in10.0 miSW (220°)11.5 mphOvercast
4:15 AM32.0 °F24.8 °F75 %29.68 in10.0 miSW (220°)6.9 mphOvercast
4:35 AM30.2 °F24.8 °F80 %29.67 in10.0 miSW (230°)3.5 mphOvercast
4:55 AM30.2 °F26.6 °F86 %29.66 in10.0 miSouth (190°)4.6 mphOvercast
5:15 AM30.2 °F26.6 °F86 %29.65 in10.0 miSouth (190°)3.5 mphOvercast
5:35 AM30.2 °F26.6 °F86 %29.65 in10.0 miSSW (200°)3.5 mphOvercast
5:55 AM30.2 °F26.6 °F86 %29.64 in10.0 miCalmOvercast
6:15 AM30.2 °F26.6 °F86 %29.63 in10.0 miSSE (160°)3.5 mphOvercast
6:35 AM32.0 °F26.6 °F80 %29.62 in10.0 miCalmOvercast
6:55 AM30.2 °F26.6 °F86 %29.62 in10.0 miCalmMostly Cloudy
7:15 AM30.2 °F26.6 °F86 %29.62 in8.0 miSouth (180°)3.5 mphSnowLight Snow
7:35 AM30.2 °F28.4 °F93 %29.60 in1.8 miSW (220°)3.5 mph0.14 inSnowLight Snow
7:55 AM30.2 °F28.4 °F93 %29.60 in1.5 miSW (230°)4.6 mph0.25 inSnowLight Snow
8:35 AM32.0 °F30.2 °F93 %29.59 in1.8 miSSW (210°)5.8 mph0.10 inSnowLight Snow
8:55 AM32.0 °F30.2 °F93 %29.59 in2.0 miSW (220°)4.6 mph0.15 inSnowLight Snow
9:15 AM32.0 °F30.2 °F93 %29.59 in3.0 miWSW (240°)6.9 mph0.02 inSnowLight Snow
9:35 AM32.0 °F30.2 °F93 %29.58 in4.0 miWSW (250°)5.8 mph0.04 inSnowLight Snow
9:55 AM32.0 °F30.2 °F93 %29.58 in10.0 miWest (260°)4.6 mph0.04 inSnowLight Snow
10:15 AM32.0 °F32.0 °F100 %29.58 in10.0 miWest (260°)5.8 mphOvercast
10:35 AM32.0 °F32.0 °F100 %29.57 in10.0 miSW (230°)5.8 mphOvercast
10:55 AM32.0 °F32.0 °F100 %29.58 in10.0 miWSW (250°)8.1 mphOvercast
11:15 AM33.8 °F32.0 °F93 %29.58 in10.0 miWest (280°)8.1 mphOvercast
11:35 AM35.6 °F32.0 °F87 %29.58 in10.0 miWest (280°)9.2 mphOvercast
11:55 AM35.6 °F32.0 °F87 %29.59 in10.0 miWest (280°)8.1 mphOvercast
12:15 PM35.6 °F32.0 °F87 %29.60 in10.0 miNW (310°)10.4 mphOvercast
12:35 PM35.6 °F32.0 °F87 %29.60 in10.0 miNW (310°)15.0 mph21.9 mphOvercast
12:55 PM35.6 °F32.0 °F87 %29.60 in10.0 miNW (310°)13.8 mphOvercast
1:15 PM37.4 °F32.0 °F81 %29.60 in10.0 miNW (310°)15.0 mph19.6 mphOvercast
1:35 PM37.4 °F32.0 °F81 %29.60 in10.0 miNW (310°)16.1 mph23.0 mphScattered Clouds
1:55 PM37.4 °F32.0 °F81 %29.60 in10.0 miNW (320°)17.3 mph21.9 mphClear
2:15 PM37.4 °F30.2 °F75 %29.61 in10.0 miNW (310°)17.3 mph25.3 mphClear
2:35 PM37.4 °F30.2 °F75 %29.62 in10.0 miNW (310°)16.1 mph20.7 mphClear
2:55 PM37.4 °F30.2 °F75 %29.62 in10.0 miNW (310°)13.8 mphMostly Cloudy
3:15 PM37.4 °F30.2 °F75 %29.63 in10.0 miNNW (330°)18.4 mph26.5 mphOvercast
3:35 PM35.6 °F28.4 °F75 %29.65 in10.0 miNNW (330°)21.9 mph28.8 mphOvercast
3:55 PM33.8 °F28.4 °F81 %29.67 in10.0 miNNW (330°)15.0 mph25.3 mphOvercast
4:15 PM32.0 °F28.4 °F87 %29.68 in10.0 miNNW (330°)10.4 mph19.6 mphOvercast
4:35 PM32.0 °F28.4 °F87 %29.70 in10.0 miNW (320°)17.3 mph24.2 mphOvercast
4:55 PM32.0 °F28.4 °F87 %29.70 in10.0 miNNW (330°)13.8 mphOvercast
5:15 PM32.0 °F28.4 °F87 %29.71 in10.0 miNW (320°)10.4 mphOvercast
5:35 PM32.0 °F28.4 °F87 %29.72 in10.0 miNNW (330°)11.5 mph19.6 mphOvercast
5:55 PM32.0 °F30.2 °F93 %29.72 in4.0 miWNW (300°)11.5 mphSnowLight Snow
6:15 PM32.0 °F30.2 °F93 %29.73 in7.0 miNW (310°)12.7 mphSnowLight Snow
6:35 PM32.0 °F30.2 °F93 %29.74 in10.0 miNW (310°)9.2 mphOvercast
6:55 PM32.0 °F30.2 °F93 %29.75 in8.0 miNW (310°)12.7 mph16.1 mphSnowLight Snow
7:15 PM32.0 °F30.2 °F93 %29.75 in3.0 miNW (310°)10.4 mph0.04 inSnowLight Snow
7:35 PM32.0 °F30.2 °F93 %29.75 in10.0 miNW (320°)9.2 mph0.04 inOvercast
7:55 PM32.0 °F28.4 °F87 %29.75 in8.0 miNW (310°)10.4 mph0.04 inSnowLight Snow
8:15 PM32.0 °F30.2 °F93 %29.76 in3.0 miNW (310°)5.8 mph0.02 inSnowLight Snow
8:35 PM32.0 °F30.2 °F93 %29.76 in2.5 miWest (270°)4.6 mph0.07 inSnowLight Snow
8:55 PM32.0 °F32.0 °F100 %29.75 in3.0 miWest (270°)5.8 mph0.10 inSnowLight Snow
9:15 PM32.0 °F30.2 °F93 %29.75 in5.0 miWest (280°)4.6 mphMostly Cloudy
9:35 PM32.0 °F32.0 °F100 %29.76 in7.0 miWNW (300°)8.1 mphOvercast
9:55 PM32.0 °F32.0 °F100 %29.76 in8.0 miWNW (300°)9.2 mphOvercast
10:15 PM32.0 °F32.0 °F100 %29.75 in10.0 miWNW (300°)9.2 mphOvercast
10:35 PM32.0 °F32.0 °F100 %29.76 in10.0 miWNW (290°)8.1 mphMostly Cloudy
10:55 PM32.0 °F32.0 °F100 %29.76 in10.0 miWest (280°)8.1 mphMostly Cloudy
11:15 PM33.8 °F30.2 °F87 %29.76 in10.0 miWNW (290°)12.7 mphOvercast
11:35 PM33.8 °F28.4 °F81 %29.76 in10.0 miWNW (300°)17.3 mph21.9 mphOvercast
11:55 PM32.0 °F23.0 °F69 %29.77 in10.0 miWNW (300°)21.9 mph32.2 mphMostly Cloudy
Hourly data recorded from KHZE, located miles away from Zap - Beulah Field, North Dakota







STORIES FROM OUR PARTNERS